User: anonymous   Login
Location: Houston
(29.7630°N, 95.3630°W)
Time: 23:52:10
(UTC-05:00)
Language:

Saudisat 1A - Orbit

View from above orbital plane
View from above orbital plane
View from above satellite
View from above satellite

Ground track
Ground track

The orbit data is extracted from the following two-line orbital elements,

1 26546U 00057B   17204.45314097 +.00000012 +00000-0 +17381-4 0  9999
2 26546 064.5531 221.7869 0026059 222.7118 137.1967 14.90550271912043
Epoch (UTC): 23 July 2017 10:52:31
Eccentricity: 0.0026059
inclination: 64.5531°
perigee height: 578 km
apogee height: 614 km
right ascension of ascending node: 221.7869°
argument of perigee: 222.7118°
revolutions per day: 14.90550271
mean anomaly at epoch: 137.1967°
orbit number at epoch: 91204

The dashed part of the orbit path shows where the satellite is in the earth's shadow,  

DLR